When you browse on this site, cookies collect data to enhance your experience and personalize the content and advertising you see.
Visit our Privacy Policy to learn more. By continuing to use the site, you agree to this use of cookies and data.
  • In Czech Republic
  • List of Countries
  • For 7 days
  • Water Temperature
  • Weather Map
  • Weather Widgets
  • user-avatar
    Login

    Hourly Weather Wavre

    Today, 6 June, Saturday

    Time Temperature Precipitation Wind Pressure Humidity
    00:00 +7°C° 0.1 mm 5 mps 743 mmHg 90%
    01:00 +7°C° 0 mm 5 mps 743 mmHg 91%
    02:00 +7°C° 0 mm 5 mps 743 mmHg 91%
    03:00 +7°C° 0 mm 5 mps 743 mmHg 91%
    04:00 +7°C° 0.2 mm 5 mps 743 mmHg 90%
    05:00 +8°C° 0.2 mm 5 mps 743 mmHg 88%
    06:00 +8°C° 0.2 mm 5 mps 743 mmHg 87%
    07:00 +9°C° 0.3 mm 6 mps 743 mmHg 80%
    08:00 +11°C° 0.3 mm 7 mps 744 mmHg 72%
    09:00 +12°C° 0.3 mm 7 mps 744 mmHg 64%
    10:00 +12°C° 0 mm 8 mps 744 mmHg 60%
    11:00 +13°C° 0 mm 8 mps 744 mmHg 55%
    12:00 +15°C° 0 mm 9 mps 744 mmHg 51%
    13:00 +15°C° 0 mm 9 mps 744 mmHg 51%
    14:00 +15°C° 0 mm 9 mps 744 mmHg 50%
    15:00 +15°C° 0 mm 9 mps 745 mmHg 50%
    16:00 +13°C° 0 mm 8 mps 745 mmHg 54%
    17:00 +12°C° 0 mm 8 mps 745 mmHg 58%
    18:00 +11°C° 0 mm 7 mps 745 mmHg 62%
    19:00 +10°C° 0 mm 7 mps 745 mmHg 64%
    20:00 +10°C° 0 mm 7 mps 746 mmHg 67%
    21:00 +9°C° 0 mm 7 mps 746 mmHg 69%
    22:00 +9°C° 0.1 mm 7 mps 746 mmHg 73%
    23:00 +9°C° 0.1 mm 7 mps 746 mmHg 78%

    Tomorrow, 7 June, Sunday

    Time Temperature Precipitation Wind Pressure Humidity
    00:00 +8°C° 0.1 mm 7 mps 746 mmHg 83%
    01:00 +8°C° 0.3 mm 7 mps 746 mmHg 85%
    02:00 +8°C° 0.3 mm 6 mps 746 mmHg 88%
    03:00 +8°C° 0.3 mm 6 mps 746 mmHg 91%
    04:00 +9°C° 0 mm 6 mps 747 mmHg 90%
    05:00 +9°C° 0 mm 6 mps 747 mmHg 89%
    06:00 +10°C° 0 mm 5 mps 747 mmHg 88%
    07:00 +12°C° 0.1 mm 5 mps 748 mmHg 81%
    08:00 +13°C° 0.1 mm 5 mps 748 mmHg 74%
    09:00 +14°C° 0.1 mm 5 mps 749 mmHg 68%
    10:00 +15°C° 0 mm 5 mps 749 mmHg 63%
    11:00 +16°C° 0 mm 5 mps 749 mmHg 57%
    12:00 +17°C° 0 mm 5 mps 750 mmHg 52%
    13:00 +17°C° 0 mm 5 mps 750 mmHg 53%
    14:00 +18°C° 0 mm 4 mps 750 mmHg 54%
    15:00 +18°C° 0 mm 3 mps 750 mmHg 55%
    16:00 +18°C° 0 mm 3 mps 751 mmHg 58%
    17:00 +17°C° 0 mm 2 mps 751 mmHg 62%
    18:00 +18°C° 0 mm 1 mps 751 mmHg 65%
    19:00 +15°C° 0 mm 1 mps 752 mmHg 70%
    20:00 +14°C° 0 mm 1 mps 752 mmHg 74%
    21:00 +11°C° 0 mm 0 mps 753 mmHg 79%
    22:00 +11°C° 0 mm 1 mps 753 mmHg 80%
    23:00 +11°C° 0 mm 1 mps 753 mmHg 82%

    Day after tomorrow, 8 June, Monday

    Time Temperature Precipitation Wind Pressure Humidity
    00:00 +11°C° 0 mm 1 mps 753 mmHg 83%
    01:00 +10°C° 0 mm 1 mps 753 mmHg 85%
    02:00 +10°C° 0 mm 1 mps 753 mmHg 86%
    03:00 +9°C° 0 mm 2 mps 753 mmHg 87%
    04:00 +10°C° 0 mm 2 mps 753 mmHg 85%
    05:00 +12°C° 0 mm 2 mps 753 mmHg 83%
    06:00 +13°C° 0 mm 2 mps 753 mmHg 81%
    07:00 +14°C° 0 mm 2 mps 754 mmHg 76%
    08:00 +16°C° 0 mm 2 mps 754 mmHg 71%
    09:00 +17°C° 0 mm 2 mps 754 mmHg 66%
    10:00 +18°C° 0.5 mm 2 mps 754 mmHg 65%
    11:00 +19°C° 0.5 mm 3 mps 754 mmHg 64%
    12:00 +19°C° 0.5 mm 3 mps 754 mmHg 63%
    13:00 +19°C° 0.7 mm 4 mps 754 mmHg 65%
    14:00 +19°C° 0.7 mm 4 mps 753 mmHg 67%
    15:00 +19°C° 0.7 mm 5 mps 753 mmHg 69%
    16:00 +17°C° 0.2 mm 5 mps 754 mmHg 70%
    17:00 +17°C° 0.2 mm 5 mps 754 mmHg 71%
    18:00 +16°C° 0.2 mm 5 mps 754 mmHg 72%
    19:00 +14°C° 0 mm 4 mps 754 mmHg 78%
    20:00 +12°C° 0 mm 3 mps 755 mmHg 84%
    21:00 +11°C° 0 mm 3 mps 755 mmHg 90%
    22:00 +10°C° 0 mm 3 mps 755 mmHg 91%
    23:00 +10°C° 0 mm 3 mps 755 mmHg 92%

    9 June, Tuesday

    Time Temperature Precipitation Wind Pressure Humidity
    00:00 +10°C° 0 mm 3 mps 755 mmHg 93%
    01:00 +9°C° 0 mm 3 mps 756 mmHg 93%
    02:00 +9°C° 0 mm 3 mps 756 mmHg 94%
    03:00 +8°C° 0 mm 3 mps 756 mmHg 94%
    04:00 +9°C° 0 mm 3 mps 756 mmHg 91%
    05:00 +10°C° 0 mm 3 mps 756 mmHg 87%
    06:00 +11°C° 0 mm 4 mps 757 mmHg 84%
    07:00 +12°C° 0 mm 4 mps 757 mmHg 80%
    08:00 +13°C° 0 mm 4 mps 757 mmHg 76%
    09:00 +14°C° 0 mm 4 mps 757 mmHg 72%
    10:00 +15°C° 0 mm 4 mps 757 mmHg 68%
    11:00 +17°C° 0 mm 4 mps 757 mmHg 65%
    12:00 +18°C° 0 mm 4 mps 757 mmHg 61%
    13:00 +18°C° 0 mm 4 mps 757 mmHg 62%
    14:00 +18°C° 0 mm 4 mps 757 mmHg 63%
    15:00 +18°C° 0 mm 4 mps 757 mmHg 64%
    16:00 +18°C° 0 mm 4 mps 757 mmHg 66%
    17:00 +17°C° 0 mm 4 mps 757 mmHg 68%
    18:00 +17°C° 0 mm 4 mps 758 mmHg 70%
    19:00 +14°C° 0 mm 4 mps 758 mmHg 75%
    20:00 +13°C° 0 mm 4 mps 758 mmHg 80%
    21:00 +11°C° 0 mm 3 mps 759 mmHg 84%
    22:00 +10°C° 0 mm 3 mps 759 mmHg 85%
    23:00 +10°C° 0 mm 3 mps 759 mmHg 85%

    10 June, Wednesday

    Time Temperature Precipitation Wind Pressure Humidity
    00:00 +9°C° 0 mm 3 mps 759 mmHg 85%
    01:00 +9°C° 0 mm 3 mps 759 mmHg 87%
    02:00 +8°C° 0 mm 3 mps 759 mmHg 89%
    03:00 +8°C° 0 mm 3 mps 759 mmHg 91%
    04:00 +9°C° 0 mm 3 mps 759 mmHg 86%
    05:00 +10°C° 0 mm 3 mps 759 mmHg 82%
    06:00 +11°C° 0 mm 4 mps 759 mmHg 77%
    07:00 +12°C° 0 mm 4 mps 759 mmHg 71%
    08:00 +14°C° 0 mm 4 mps 759 mmHg 66%
    09:00 +16°C° 0 mm 5 mps 760 mmHg 60%
    10:00 +18°C° 0 mm 4 mps 759 mmHg 57%
    11:00 +19°C° 0 mm 4 mps 759 mmHg 54%
    12:00 +21°C° 0 mm 4 mps 759 mmHg 51%
    13:00 +21°C° 0 mm 4 mps 759 mmHg 50%
    14:00 +21°C° 0 mm 5 mps 759 mmHg 49%
    15:00 +21°C° 0 mm 5 mps 759 mmHg 49%
    16:00 +20°C° 0 mm 4 mps 759 mmHg 53%
    17:00 +20°C° 0 mm 4 mps 759 mmHg 57%
    18:00 +19°C° 0 mm 4 mps 759 mmHg 62%
    19:00 +17°C° 0 mm 4 mps 760 mmHg 68%
    20:00 +14°C° 0 mm 4 mps 760 mmHg 75%
    21:00 +12°C° 0 mm 4 mps 760 mmHg 81%
    22:00 +11°C° 0 mm 3 mps 760 mmHg 85%
    23:00 +10°C° 0 mm 3 mps 760 mmHg 88%

    11 June, Thursday

    Time Temperature Precipitation Wind Pressure Humidity
    00:00 +9°C° 0 mm 3 mps 760 mmHg 92%
    01:00 +9°C° 0 mm 3 mps 760 mmHg 92%
    02:00 +8°C° 0 mm 3 mps 760 mmHg 93%
    03:00 +8°C° 0 mm 3 mps 760 mmHg 94%
    04:00 +9°C° 0 mm 3 mps 760 mmHg 90%
    05:00 +10°C° 0 mm 3 mps 760 mmHg 87%
    06:00 +10°C° 0 mm 3 mps 761 mmHg 84%
    07:00 +12°C° 0 mm 3 mps 760 mmHg 76%
    08:00 +14°C° 0 mm 4 mps 760 mmHg 67%
    09:00 +17°C° 0 mm 4 mps 760 mmHg 59%
    10:00 +18°C° 0 mm 4 mps 760 mmHg 57%
    11:00 +19°C° 0 mm 5 mps 760 mmHg 54%
    12:00 +20°C° 0 mm 5 mps 759 mmHg 51%
    13:00 +20°C° 0 mm 5 mps 759 mmHg 51%
    14:00 +20°C° 0 mm 5 mps 759 mmHg 51%
    15:00 +21°C° 0 mm 5 mps 758 mmHg 52%
    16:00 +20°C° 0 mm 4 mps 758 mmHg 55%
    17:00 +20°C° 0 mm 4 mps 758 mmHg 59%
    18:00 +19°C° 0 mm 4 mps 758 mmHg 63%
    19:00 +17°C° 0 mm 4 mps 758 mmHg 68%
    20:00 +15°C° 0 mm 4 mps 759 mmHg 73%
    21:00 +13°C° 0 mm 4 mps 759 mmHg 78%
    22:00 +12°C° 0 mm 3 mps 759 mmHg 82%
    23:00 +11°C° 0 mm 3 mps 759 mmHg 87%
    Show more